Regional Weather Roundup
Issued by NWS Boston, MA

Current Version | Previous Version | Text Only | Print | Product List | Glossary Off
Versions: 1 2 3 4 5 6 7 8 9 10 11 12 13 14 15 16 17 18 19 20 21 22 23 24 25 26 27 28 29 30 31 32 33 34 35 36 37 38 39 40 41 42 43 44 45 46 47 48 49 50
000 ASUS41 KBOX 192210 RWRBOX REGIONAL WEATHER ROUNDUP NATIONAL WEATHER SERVICE BOSTON/NORTON MA 600 PM EDT THU APR 19 2018 NOTE: "FAIR" INDICATES FEW OR NO CLOUDS BELOW 12,000 FEET WITH NO SIGNIFICANT WEATHER AND/OR OBSTRUCTIONS TO VISIBILITY. MAZALL-192300- EASTERN MASSACHUSETTS CITY SKY/WX TMP DP RH WIND PRES REMARKS BOSTON PTSUNNY 44 38 79 W9 29.71S BEVERLY CLOUDY 45 38 76 W8 29.69F LAWRENCE CLOUDY 44 37 76 W5 29.73R BEDFORD CLOUDY 43 38 82 NW12 29.70S BLUE HILL N/A 39 39 100 W5 29.68S NORWOOD PTSUNNY 45 40 82 VRB5 29.71 MARSHFIELD PTSUNNY 43 41 93 VRB7 29.70F PLYMOUTH CLOUDY 43 39 86 W8 29.72S TAUNTON PTSUNNY 43 38 82 VRB7 29.72S NEW BEDFORD PTSUNNY 44 39 82 W10 29.71F $$ MAZALL-192300- CAPE COD AND THE ISLANDS CITY SKY/WX TMP DP RH WIND PRES REMARKS FALMOUTH PTSUNNY 41 39 93 NW5G13 29.72 HYANNIS CLOUDY 41 38 89 N6 29.70R CHATHAM LGT RAIN 39 38 96 CALM 29.72R PROVINCETOWN FAIR 39 37 92 W6 29.71F NANTUCKET CLOUDY 40 39 97 N10 29.72R MARTHAS VNYRD CLOUDY 42 39 89 NW8 29.72S $$ MAZALL-192300- CENTRAL AND WESTERN MASSACHUSETTS CITY SKY/WX TMP DP RH WIND PRES REMARKS WORCESTER PTSUNNY 38 34 85 NW12 29.70S WCI 30 FITCHBURG PTSUNNY 47 34 60 NW13 29.72R ORANGE CLOUDY 39 36 89 NW8 29.73S SPRINGFIELD LGT RAIN 42 35 76 NW12G28 29.74 WESTFIELD CLOUDY 44 32 62 NW18G26 29.77R NORTH ADAMS LGT SNOW 34 32 92 VRB6 29.79R FOG WCI 29 PITTSFIELD PTSUNNY 37 29 72 W15G23 29.74R WCI 28 $$ RIZALL-192300- RHODE ISLAND CITY SKY/WX TMP DP RH WIND PRES REMARKS PROVIDENCE PTSUNNY 45 40 82 NW9 29.73R NEWPORT FAIR 43 38 82 NW8 29.72F BLOCK ISLAND CLOUDY 41 39 93 W8 29.75R SMITHFIELD LGT RAIN 41 36 82 MISG 29.71S WESTERLY PTSUNNY 45 39 79 VRB5 29.75R $$ CTZALL-192300- CONNECTICUT CITY SKY/WX TMP DP RH WIND PRES REMARKS BRADLEY INTL PTSUNNY 44 32 62 NW15G22 29.77R HARTFORD PTSUNNY 45 33 63 NW13G24 29.78R BRIDGEPORT PTSUNNY 45 35 68 NW13 29.80R DANBURY CLOUDY 39 34 82 NW8 29.82R GROTON CLOUDY 45 36 70 W9 29.75R NEW HAVEN PTSUNNY 44 36 73 W8 29.79R CHESTER CLOUDY 43 36 75 W6 29.76R MERIDEN LGT RAIN 44 34 67 NW12 29.79R WILLIMANTIC LGT RAIN 43 36 76 NW10 29.75R OXFORD LGT RAIN 37 33 85 VRB7G20 29.79R WCI 32 $$ MEZ002-015-021-024-NHZ003-005-008-011-012-014-VTZ005-008-192300- NORTHERN NEW ENGLAND CITY SKY/WX TMP DP RH WIND PRES REMARKS PORTLAND ME LGT RAIN 42 37 82 VRB3 29.70R BANGOR ME CLOUDY 43 35 73 SW3 29.67S CONCORD NH PTSUNNY 45 30 55 N12 29.71R MANCHESTER NH PTSUNNY 47 32 56 NW10 29.70R NASHUA NH CLOUDY 44 37 76 NW13 29.72R PORTSMOUTH NH CLOUDY 43 37 78 NW9 29.68 JAFFREY NH CLOUDY 40 33 76 VRB7 29.71R KEENE NH CLOUDY 42 32 67 N9 29.73R BURLINGTON VT CLOUDY 40 30 67 N12 29.80R MT. WASHINGTON SNOW 19 19 100 W31 N/A VSB 1/16WCI 0 $$ NYZ052-076-192300- EASTERN NEW YORK CITY SKY/WX TMP DP RH WIND PRES REMARKS ALBANY CLOUDY 41 25 53 W21G31 29.82R WCI 32 NEW YORK CITY PTSUNNY 46 30 53 NW25G33 29.82R $$ ANZALL-192300- MARINE OBSERVATIONS STATION/POSITION TIME TEMP WIND PRES VSBY WAVE AIR SEA DIR/SP/G HT/PER (UTC) (F) (DEG/KT/KT) (MB) (MI) (FT/S) BOSTON BUOY 2150 41 43 250/ 10/ 12 1005.4R 1/10 BUZZARDS BAY 2100 41 310/ 11/ 12 1007.5R NANTUCKET SOUND 2150 39 42 320/ 10/ 12 1006.2R 1/ 3 MASS BAY-STELLWA 2104 39 42 1004.3R 2/ 8 ISLE OF SHOALS 2200 42 250/ 8/ 8 1005.5R S OF BLOCK IS 2143 41 N/A 2/ 9 $$ ......................KEY......................... SKY/WX - SKY CONDITION/PRESENT WEATHER TMP - TEMPERATURE IN FAHRENHEIT DWPT - DEWPOINT IN FAHRENHEIT RH - RELATIVE HUMIDITY IN PERCENT WIND - DIRECTION AND SPEED IN MPH PRES - MEAN SEA LEVEL PRESSURE IN INCHES OF HG WCI - WIND CHILL INDEX VSB - VISIBILITY IN MILES HX - HEAT INDEX TC - TEMPERATURE IN CELSIUS VRB - VARIABLE WIND DIRECTION N/A - NOT AVAILABLE

USA.gov is the U.S. government's official web portal to all federal, state and local government web resources and services.